TimeMDT,TemperatureF,Dew PointF,Humidity,Sea Level PressureIn,VisibilityMPH,Wind Direction,Wind SpeedMPH,Gust SpeedMPH,PrecipitationIn,Events,Conditions,WindDirDegrees,DateUTC
12:53 AM,14.0,5.0,67,30.27,10.0,West,8.1,-,N/A,,Clear,260,2013-03-24 06:53:00
1:18 AM,14.0,5.0,67,30.10,10.0,West,6.9,-,N/A,,Mostly Cloudy,280,2013-03-24 07:18:00
1:53 AM,16.0,8.1,71,30.26,4.0,WSW,4.6,-,0.00,Snow,Light Snow,250,2013-03-24 07:53:00
2:09 AM,15.8,8.6,73,30.09,2.5,West,8.1,-,0.00,Snow,Light Snow,260,2013-03-24 08:09:00
2:40 AM,15.8,8.6,73,30.10,4.0,West,6.9,-,0.00,Snow,Light Snow,260,2013-03-24 08:40:00
2:53 AM,16.0,8.1,71,30.26,4.0,West,6.9,-,0.00,Snow,Light Snow,260,2013-03-24 08:53:00
3:00 AM,15.8,6.8,68,30.10,5.0,West,8.1,-,0.00,Snow,Light Snow,260,2013-03-24 09:00:00
3:21 AM,14.0,6.8,73,30.09,6.0,WSW,8.1,-,0.00,Snow,Light Snow,250,2013-03-24 09:21:00
3:53 AM,14.0,5.0,67,30.26,10.0,WSW,6.9,-,0.00,,Overcast,240,2013-03-24 09:53:00
4:53 AM,12.0,1.0,61,30.27,10.0,SSW,5.8,-,N/A,,Mostly Cloudy,210,2013-03-24 10:53:00
5:14 AM,10.4,-0.4,62,30.07,10.0,SW,4.6,-,N/A,,Partly Cloudy,220,2013-03-24 11:14:00
5:41 AM,10.4,-0.4,62,30.08,10.0,SW,5.8,-,N/A,,Mostly Cloudy,230,2013-03-24 11:41:00
5:53 AM,10.9,-0.0,61,30.28,10.0,SSW,3.5,-,N/A,,Overcast,210,2013-03-24 11:53:00
6:44 AM,10.4,-0.4,62,30.09,10.0,SSW,4.6,-,N/A,,Scattered Clouds,210,2013-03-24 12:44:00
6:53 AM,10.0,-2.0,58,30.29,10.0,SW,8.1,-,N/A,,Partly Cloudy,230,2013-03-24 12:53:00
7:53 AM,9.0,-2.0,61,30.31,10.0,WSW,9.2,-,N/A,,Clear,240,2013-03-24 13:53:00
8:53 AM,9.0,1.9,73,30.32,10.0,East,3.5,-,N/A,,Clear,100,2013-03-24 14:53:00
9:53 AM,12.9,3.9,67,30.32,10.0,Calm,Calm,-,N/A,,Clear,0,2013-03-24 15:53:00
10:53 AM,18.0,8.1,65,30.31,10.0,SW,4.6,-,N/A,,Clear,220,2013-03-24 16:53:00
11:53 AM,21.0,10.9,65,30.31,10.0,South,5.8,-,N/A,,Clear,180,2013-03-24 17:53:00
12:53 PM,21.9,10.9,63,30.30,10.0,South,6.9,-,N/A,,Clear,170,2013-03-24 18:53:00
1:43 PM,23.0,12.2,63,30.11,10.0,SSE,4.6,-,N/A,,Mostly Cloudy,150,2013-03-24 19:43:00
1:53 PM,23.0,10.0,58,30.27,10.0,SSE,4.6,-,N/A,,Scattered Clouds,160,2013-03-24 19:53:00
2:53 PM,25.0,12.9,60,30.25,10.0,SSW,4.6,-,N/A,,Overcast,200,2013-03-24 20:53:00
3:53 PM,26.1,14.0,60,30.25,10.0,South,8.1,-,N/A,,Clear,170,2013-03-24 21:53:00
4:53 PM,26.1,12.0,55,30.26,10.0,South,5.8,-,N/A,,Clear,170,2013-03-24 22:53:00
5:53 PM,26.1,10.9,53,30.27,10.0,South,5.8,-,N/A,,Clear,190,2013-03-24 23:53:00
6:53 PM,25.0,10.0,53,30.29,10.0,SSE,5.8,-,N/A,,Overcast,160,2013-03-25 00:53:00
7:53 PM,19.0,8.1,62,30.33,10.0,WSW,6.9,-,N/A,,Partly Cloudy,240,2013-03-25 01:53:00
8:53 PM,18.0,6.1,60,30.35,10.0,WSW,11.5,-,N/A,,Mostly Cloudy,250,2013-03-25 02:53:00
9:53 PM,18.0,6.1,60,30.35,10.0,SW,11.5,-,N/A,,Overcast,230,2013-03-25 03:53:00
10:53 PM,17.1,5.0,59,30.34,10.0,SW,10.4,-,N/A,,Clear,230,2013-03-25 04:53:00
11:53 PM,16.0,5.0,62,30.33,10.0,SW,6.9,-,N/A,,Clear,230,2013-03-25 05:53:00